Retour au catalogue

STARLINK-32630

ActifCommunicationsVLEO
NORAD 62047·PAYLOAD·🇺🇸 United States

Lancé Nov 21, 2024 depuis Cape Canaveral Space Force Station

Loading…

Prochains Passages (prochaines 24 heures)

TLE

FraisSource: CelesTrak SupGP

Époque: Sep 15, 2026, 03:40 UTC

1 62047C 24216R   26258.15326389 -.00026948  00000+0 -97596-3 0  2581
2 62047  42.9999 273.5793 0001260 267.0786 244.9785 15.27595898    13

Suivez STARLINK-32630 en temps réel avec AllMySat

Download on the App Store